Location: *
(52.2090°N, 4.1550°W)
Time: 00:48:51
(UTC+00:00)

IGS 5A - Pass Details

Date: 19 July 2019
Orbit: 584 x 588 km, 97.6° (Epoch: 18 August)

Event Time Altitude Azimuth Distance (km) Brightness Sun altitude
Exits shadow 21:51:12 - 175° (S) 1,957 5.6 -9.9°
Reaches altitude 10° 21:51:19 10° 176° (S) 1,909 5.6 -9.9°
Maximum altitude 21:55:26 65° 258° (WSW) 652 3.8 -10.3°
Drops below altitude 10° 21:59:35 10° 341° (NNW) 1,923 7.5 -10.6°
Sets 22:01:47 0° 344° (NNW) 2,827 8.6 -10.8°
